Tracking 29892 objects as of 21-Nov-2024
HD Live streaming from Space Station
objects crossing your sky now

FENGYUN 1C DEB

Track FENGYUN 1C DEB now!
10-day predictions


NORAD ID: 38818
Int'l Code: 1999-025EVJ
Perigee: 708.2 km
Apogee: 838.3 km
Inclination: 98.3 °
Period: 100.2 minutes
Semi major axis: 7144 km
RCS: 0.0056 m2 (small)
Launch date: May 10, 1999
Source: People's Republic of China (PRC)
Launch site: Taiyaun Space Center, China (TSC)

Note: This is SATELLITE DEBRIS
Your satellite tracking list
Your tracking list is empty




NASA's NSSDC Master Catalog

Two Line Element Set (TLE):
1 38818U 99025EVJ 24323.94621635  .00002371  00000-0  76531-3 0  9991
2 38818  98.3494  25.8232 0091050 188.2374 346.3540 14.37712527642586
Source of the keplerian elements: AFSPC